ROMMA est une association bénévole à but non lucratif. Votre soutien est indispensable : ADHERER à ROMMA ou FAIRE un DON

Saint-Léger-les-Mélèzes - (05, Hautes-Alpes)

Champsaur (1245 m)   Longitude: 6° 11' 42" E    Latitude: 44° 38' 38" N Station partenaire n°51
 

Détail journalier du     <<     >>

Température Humidité Vent Dir Rafale Dir. rafale Ensol.
Heure (°C) (%) (km/h) (km/h) (min)
01:00 -0.88312O32OSO0
02:00 -0.36911O32O0
03:00 -1.88713ONO42OSO0
04:00 -2.28912ONO34ONO0
05:00 -2.6879O31OSO0
06:00 -2.3848O32O0
07:00 -2.17711O34OSO0
08:00 -3.08813ONO44OSO0
09:00 -2.4875SSO32OSO0
10:00 -1.9843OSO24O0
11:00 -1.6805ONO23NO0
12:00 -1.2798ONO24ONO20
13:00 -0.36910ONO34NO40
14:00 0.4706N24NNE60
15:00 0.3719ONO26SO60
16:00 0.46710ONO31ONO60
17:00 -0.8749ONO31NO30
18:00 -1.6785SE24SSE20
19:00 -1.9785S21SSE0
20:00 -2.1723S15SSE0
21:00 -2.8751S8S0
22:00 -2.3672SSO16SSE0
23:00 -2.7683OSO18S0
minuit -3.3711ESE8SSE0

Graphique du 11-02-2019

 

Serveur OMMA